GFSNE_700_spd_009.txt.gz
Wind_Speed
47 47 46 45 45 47 48 48 50 55 56 52 50 44 44 43 40 38 43 46 48 48 49 54 61 56 51 43 46 49 51 59 38 45 50 52 60 51
43 42 43 45 46 48 49 48 49 52 57 53 50 47 44 44 41 37 41 44 46 43 45 38 45 56 59 50 43 41 50 46 45 33 53 45 53 51
42 44 45 46 46 46 46 46 46 46 52 54 52 49 48 47 44 40 36 44 46 44 44 43 42 43 42 48 57 50 45 58 55 51 41 50 51 52
44 44 44 43 43 42 42 42 43 43 47 52 54 51 49 48 48 45 42 41 47 49 48 48 46 43 40 42 43 49 55 52 52 51 42 36 48 49
42 41 41 40 41 41 43 45 46 48 49 53 55 55 50 47 47 47 47 46 45 50 52 52 50 48 46 46 45 47 51 57 59 55 54 59 48 50
39 39 40 40 40 40 40 42 44 46 47 50 53 54 55 49 46 46 47 46 48 48 52 55 52 50 50 49 48 48 48 50 56 58 54 55 56 54
40 39 39 40 41 43 45 45 46 48 49 50 51 52 52 52 49 46 49 48 47 47 48 49 51 51 48 48 49 46 51 52 52 53 54 54 58 56
41 40 41 43 43 45 46 48 49 50 50 51 51 51 51 51 50 49 47 47 48 46 46 46 47 48 49 48 47 45 47 49 53 55 56 54 55 57
41 44 45 44 40 37 36 37 39 40 43 44 45 44 44 43 44 45 44 44 45 44 45 46 46 48 46 46 41 40 42 42 44 48 55 58 56 58
43 44 39 34 32 33 35 36 38 39 39 40 42 41 39 38 39 38 37 37 39 40 40 43 41 47 44 42 41 40 39 37 39 41 43 50 56 59
38 31 33 32 32 33 34 38 38 37 37 37 40 41 40 39 38 37 36 36 37 35 34 37 36 40 43 43 42 40 37 36 36 36 37 40 45 53
29 29 31 33 33 32 32 33 31 24 26 28 32 34 34 34 35 36 34 34 34 35 30 33 34 35 39 42 44 38 36 36 37 37 37 39 40 45
28 28 28 28 27 27 27 26 26 22 20 21 22 24 27 29 31 34 32 31 31 33 30 29 31 32 35 36 38 43 37 32 35 38 36 33 36 41
25 27 27 26 25 24 24 22 20 20 19 18 19 20 20 21 23 27 30 30 29 29 29 31 33 32 33 35 36 37 37 37 33 35 39 32 30 36
21 24 29 29 21 17 14 13 14 16 17 17 18 18 18 17 20 24 27 28 28 28 27 29 30 29 31 33 36 36 35 38 35 36 34 37 32 33
17 21 27 23 19 14 9 8 10 12 13 15 15 13 15 17 18 19 24 27 29 28 24 23 24 26 28 30 31 32 34 35 32 29 35 38 32 35
14 19 24 21 17 13 10 9 9 10 11 11 11 11 9 9 11 14 17 19 22 16 15 13 13 16 20 23 28 29 29 34 27 23 26 30 30 33
13 16 19 21 15 11 9 10 10 10 10 10 10 9 9 7 5 4 5 9 9 10 9 11 13 13 16 20 22 24 27 33 25 22 27 30 29 32
12 13 16 20 20 16 12 9 9 8 8 7 6 4 4 6 4 4 4 3 4 6 7 8 9 10 11 3 11 17 29 24 21 23 24 26 27 31
11 10 11 15 17 19 20 16 12 10 8 6 5 3 1 3 4 4 5 3 3 5 4 5 4 3 5 8 12 13 18 23 21 23 24 24 24 26
10 10 10 10 12 14 17 19 20 19 15 7 7 6 7 7 5 4 3 4 5 3 4 6 9 10 10 13 16 19 20 26 26 24 20 22 20 23
8 10 10 9 10 12 13 14 16 16 18 18 13 5 9 8 9 9 9 9 10 11 11 11 13 13 15 15 15 15 16 16 17 18 18 14 16 18
5 7 8 9 10 11 12 13 14 16 17 18 19 18 7 6 9 9 10 11 11 11 10 10 13 14 16 16 17 17 17 13 12 14 10 8 13 13

GFSNE_700_spd_012.txt.gz
Wind_Speed
39 44 49 43 43 46 44 43 45 51 52 50 46 46 49 51 51 51 50 47 45 47 49 51 56 60 60 57 58 60 61 58 37 41 46 57 60 59
37 38 39 42 42 41 41 43 45 50 55 52 52 50 50 54 52 52 49 45 42 44 44 45 49 54 58 57 56 63 48 53 53 45 48 38 40 50
38 40 41 41 42 42 43 45 46 47 52 52 52 51 50 51 51 47 48 45 41 43 47 45 46 49 48 51 52 52 68 65 51 56 34 44 38 49
41 43 43 43 42 41 40 41 43 43 46 49 48 49 48 47 48 47 47 45 43 43 47 50 49 47 48 46 48 46 51 70 59 46 61 54 46 46
41 40 40 39 39 39 40 41 42 43 45 48 49 50 49 48 48 46 45 46 44 43 45 49 54 51 48 49 45 45 44 48 48 67 50 44 53 54
40 40 39 39 40 39 39 39 41 43 45 47 47 48 49 47 47 46 45 44 45 42 44 47 50 58 53 48 51 48 45 41 40 41 59 47 45 57
39 37 38 38 38 40 42 43 45 46 47 48 49 48 49 49 47 44 45 42 43 42 42 44 48 50 53 56 52 51 47 46 43 44 46 49 50 56
40 38 39 39 40 43 44 45 45 45 44 44 45 45 45 46 46 43 43 42 41 40 42 42 44 46 48 48 53 53 51 51 45 45 45 46 43 50
38 40 40 40 42 41 37 36 36 36 39 40 41 39 38 35 36 37 36 37 37 35 39 41 41 42 45 48 49 50 50 51 48 48 45 46 46 44
39 39 39 37 32 34 34 34 34 33 33 36 39 40 40 37 35 34 32 31 31 31 34 37 35 38 41 43 46 48 49 47 46 45 47 47 46 47
37 35 32 31 31 33 34 34 34 31 29 29 30 33 35 35 34 35 33 31 30 27 27 33 32 34 37 40 44 46 46 45 44 43 43 44 45 45
32 27 27 28 29 30 32 32 31 26 25 23 22 24 25 25 27 31 31 31 30 28 22 29 29 29 32 35 39 42 42 41 42 43 43 42 42 43
26 24 23 25 28 31 31 30 27 24 21 19 18 19 19 21 22 25 28 30 29 27 18 25 28 28 31 30 33 39 42 41 40 41 42 41 40 40
24 23 23 26 28 22 20 18 17 17 15 15 16 17 18 18 19 21 23 26 26 23 18 20 26 29 29 29 30 34 42 45 42 39 38 37 39 40
22 21 21 25 20 15 13 10 9 9 11 13 14 16 17 18 19 19 21 22 21 20 19 19 19 20 25 27 26 30 36 41 43 44 38 36 36 38
15 15 18 22 18 12 11 11 11 12 11 11 11 12 13 12 12 15 17 16 19 20 18 18 17 17 18 22 24 25 30 35 38 41 41 39 38 36
11 12 15 19 17 14 12 11 11 12 11 11 10 10 10 11 9 8 12 15 16 14 16 15 13 13 15 17 22 24 27 30 34 37 39 39 36 35
9 10 12 17 18 14 11 10 10 11 10 9 7 7 8 11 11 7 3 3 3 4 6 7 8 13 15 14 13 15 22 29 30 32 34 33 30 31
9 10 10 12 16 20 18 14 11 10 8 6 5 4 6 9 7 7 9 7 3 1 6 9 12 13 14 13 11 14 18 23 26 34 31 27 25 28
10 8 8 9 11 13 15 16 17 17 14 10 6 5 4 3 3 4 4 4 3 3 3 2 7 5 7 12 10 11 12 16 23 29 25 22 23 23
8 8 9 9 9 11 12 14 15 17 18 18 14 8 8 7 5 4 2 2 2 2 3 5 9 11 9 9 7 8 7 12 17 20 19 17 18 19
7 8 8 9 9 10 11 12 14 15 16 17 19 17 6 9 9 9 9 9 10 10 10 10 9 11 12 12 11 11 11 14 16 21 19 17 17 18
6 7 7 8 9 11 12 13 13 14 15 16 16 19 19 8 6 9 8 8 9 10 10 10 10 10 12 14 14 13 12 12 13 16 14 12 12 15

GFSNE_700_spd_015.txt.gz
Wind_Speed
37 40 36 42 42 34 34 36 38 38 40 39 40 44 49 53 57 56 56 56 54 51 50 50 50 51 52 55 55 51 49 48 50 55 55 58 56 63
35 35 34 34 35 36 36 38 41 43 47 41 42 43 46 49 50 52 55 57 56 50 49 49 50 51 52 54 56 55 52 49 48 50 51 55 54 60
34 35 36 36 37 37 38 37 39 42 46 45 45 46 44 46 48 49 51 53 55 53 48 47 49 50 52 53 55 56 54 52 50 51 57 59 50 45
33 35 36 37 38 39 38 38 39 40 43 45 43 44 45 42 45 46 46 47 49 50 48 46 47 49 50 50 53 55 56 52 48 51 61 65 65 59
35 35 35 36 36 36 37 38 39 40 42 44 44 43 45 43 43 46 47 46 44 45 46 46 46 49 50 53 51 53 53 50 48 49 51 59 60 56
37 36 36 36 36 37 38 38 38 40 41 43 45 44 45 46 46 46 46 44 43 43 44 46 46 48 51 52 56 52 50 49 46 42 44 48 65 61
37 37 36 36 36 37 39 38 39 41 43 45 46 45 46 46 46 45 47 44 43 44 43 44 44 46 48 51 53 57 57 49 49 43 41 42 44 67
38 36 36 36 36 37 37 39 40 41 40 39 38 38 36 36 37 38 39 41 43 43 42 42 43 43 44 48 52 53 54 57 50 48 42 40 37 39
36 36 36 35 36 36 35 34 32 33 35 35 36 34 35 34 35 36 35 34 34 33 37 41 41 43 43 44 47 52 53 52 60 54 50 46 39 38
36 36 36 34 32 31 30 31 31 32 32 34 35 34 33 34 36 36 35 35 34 32 31 36 36 39 39 42 45 48 50 50 52 52 53 50 47 42
35 35 34 30 26 27 28 31 33 32 30 28 28 29 29 27 28 30 32 34 33 30 28 33 32 33 35 38 42 45 47 47 49 49 47 48 49 47
34 31 27 23 23 24 29 34 35 30 27 24 24 25 24 23 22 24 25 29 30 29 25 30 29 28 31 34 36 40 44 45 45 46 47 46 46 49
31 25 21 19 21 25 29 26 24 19 15 16 17 17 18 19 19 20 22 24 24 24 19 26 26 27 31 31 32 34 38 40 44 44 45 45 45 46
25 21 20 18 20 24 20 16 12 9 8 8 9 12 14 17 18 20 21 21 23 23 19 25 24 24 26 27 26 27 33 36 41 43 44 44 45 45
20 18 18 18 20 17 12 9 8 8 7 8 8 8 10 12 13 15 19 20 21 22 20 23 23 19 21 24 24 25 29 32 37 41 44 45 44 44
14 13 13 15 18 11 7 6 8 8 8 7 7 8 9 10 10 10 10 14 16 15 14 17 17 16 17 18 21 24 28 32 36 43 47 45 42 42
10 10 9 12 14 10 7 6 7 8 8 7 6 6 7 9 11 12 9 9 10 10 8 12 14 14 16 16 18 21 26 30 33 40 47 46 46 43
9 8 7 9 11 16 15 12 11 11 9 7 5 5 5 7 8 10 8 5 1 3 5 7 11 12 13 14 13 14 21 28 32 34 38 41 45 49
11 9 7 7 9 12 13 13 13 13 10 7 5 5 4 5 6 5 6 5 4 4 3 3 6 9 10 12 11 13 15 19 26 33 34 35 37 40
10 8 7 7 9 10 10 11 12 13 14 15 10 6 6 3 1 2 4 5 5 3 2 2 3 5 7 10 10 10 14 16 20 24 29 30 30 33
9 9 8 8 9 10 11 12 12 13 14 15 16 11 6 6 6 5 3 2 2 2 3 4 5 8 7 8 8 7 10 11 12 16 20 24 27 25
8 8 8 8 8 11 12 12 12 13 13 13 15 16 7 4 7 7 8 9 9 10 10 10 10 10 11 11 11 9 9 8 8 13 16 20 21 17
8 8 8 7 10 10 10 11 12 13 14 13 13 14 15 9 3 3 6 6 6 7 8 9 9 9 10 10 10 10 9 10 12 15 16 21 19 17

GFSNE_700_spd_021.txt.gz
Wind_Speed
34 33 33 31 30 34 40 34 30 32 34 33 40 38 31 27 28 34 41 43 46 48 51 47 49 49 48 49 46 44 42 40 40 41 43 45 45 45
27 23 21 22 24 27 28 30 31 29 29 30 30 31 34 33 31 34 39 40 42 42 46 45 46 48 49 51 52 51 48 47 45 44 44 46 46 46
31 30 28 26 28 30 30 30 29 28 33 33 29 28 30 35 39 40 41 43 43 44 45 47 48 50 50 51 52 52 54 53 51 49 48 48 48 47
34 31 32 33 33 36 37 37 35 32 32 37 33 34 35 35 34 35 35 31 36 37 45 50 52 53 50 49 51 53 56 57 56 51 48 50 50 50
35 37 37 34 35 36 36 37 37 36 35 38 40 34 35 35 35 35 35 36 34 34 38 43 46 49 50 49 51 53 54 55 56 54 50 49 51 52
36 36 36 36 36 36 37 37 38 39 39 40 41 40 36 31 31 32 33 34 36 31 32 36 42 46 48 48 49 51 53 54 55 54 50 50 51 52
35 36 36 37 35 34 36 37 37 38 38 38 40 38 32 30 33 31 34 36 39 41 42 41 41 41 43 46 47 48 51 53 55 54 52 51 52 52
35 34 34 36 36 36 36 37 36 36 37 37 38 40 39 38 38 37 37 38 40 37 36 38 40 42 43 44 43 47 51 53 54 55 54 55 53 52
35 36 36 34 34 34 35 36 36 34 34 34 36 34 35 33 35 36 36 38 39 37 37 37 36 38 38 38 42 45 45 46 47 50 51 53 54 54
37 36 36 34 32 33 34 34 33 33 30 29 30 30 32 33 34 34 35 38 38 37 36 39 36 38 38 39 37 38 43 45 44 46 48 49 52 55
37 36 33 32 30 31 31 31 29 27 26 28 30 33 35 34 33 34 33 33 32 31 29 33 31 35 37 39 38 37 37 41 43 43 45 46 47 51
33 31 29 27 27 26 26 26 27 25 26 27 26 26 24 22 22 26 25 28 28 28 24 27 26 25 28 30 31 32 34 36 38 40 41 43 44 47
32 27 22 21 23 22 22 23 24 23 22 17 14 12 11 11 12 15 18 21 24 26 21 24 26 23 22 24 25 21 22 27 31 34 37 39 41 44
27 24 21 20 20 20 20 20 21 16 11 10 11 10 9 9 9 11 15 18 20 23 21 21 25 23 23 23 21 20 20 19 19 27 31 34 37 40
23 21 19 17 16 15 17 14 10 8 9 10 10 9 9 9 10 11 13 15 17 19 20 19 22 23 25 23 22 20 18 18 21 24 25 30 31 34
17 15 14 12 10 13 9 5 4 6 8 8 8 8 7 6 6 9 11 12 12 11 10 11 15 21 26 28 27 21 19 20 18 20 23 22 24 30
14 13 10 8 9 11 11 5 2 3 4 4 5 5 5 4 5 6 7 9 7 7 9 10 12 13 15 19 23 20 17 16 15 17 20 20 24 27
13 10 9 8 8 7 6 6 5 5 4 4 4 5 6 4 3 4 6 8 8 8 5 6 11 10 8 9 12 14 17 16 15 15 18 21 22 23
12 10 9 8 7 5 5 6 6 7 8 8 7 6 8 8 4 4 5 5 5 4 5 6 6 8 6 6 7 9 10 11 13 14 15 20 20 22
11 10 9 8 7 5 7 7 7 7 8 9 11 9 7 10 8 6 5 5 4 3 4 5 6 6 7 8 12 13 13 12 13 14 15 16 16 18
11 10 9 8 6 5 7 7 7 7 8 9 11 12 6 7 9 9 10 9 9 10 10 10 9 8 8 8 10 9 9 11 10 9 11 14 15 15
11 10 9 7 4 5 6 7 7 7 8 9 10 11 10 5 5 9 11 12 12 13 14 14 14 13 12 12 13 12 12 12 11 10 9 9 12 11
11 10 8 5 2 5 7 7 7 7 7 7 8 9 9 8 8 6 7 9 11 11 10 10 10 10 11 13 13 12 12 12 11 11 10 9 8 9

GFSNE_700_spd_024.txt.gz
Wind_Speed
29 30 30 27 24 22 23 25 27 29 30 25 35 32 40 50 54 45 39 39 40 44 47 47 49 47 49 48 47 47 47 47 44 41 42 42 42 43
35 33 29 28 29 23 22 23 27 29 36 30 23 27 31 32 33 32 37 36 39 42 43 39 39 41 44 47 48 49 49 50 49 47 43 41 39 40
40 37 35 33 32 30 28 29 28 33 37 39 35 29 28 32 34 34 36 37 39 42 42 40 40 40 42 44 47 50 50 51 52 50 49 45 43 40
29 27 29 32 33 34 35 34 35 37 38 40 37 36 34 31 34 37 36 37 40 41 44 44 43 44 43 44 45 47 49 50 51 53 54 53 50 48
31 33 34 33 33 33 33 34 35 36 37 39 40 38 36 34 33 35 35 35 38 38 39 40 41 41 42 44 44 44 49 51 53 53 54 55 54 54
36 37 35 35 36 36 36 35 33 35 36 37 38 38 37 34 32 30 30 28 31 33 35 35 38 39 40 43 45 45 46 50 52 52 53 53 53 53
35 35 35 34 34 35 36 38 37 36 36 36 37 37 37 35 31 29 32 33 34 33 35 35 37 39 38 38 40 42 44 48 52 54 55 55 54 53
35 33 34 34 33 31 32 37 36 35 35 35 36 38 36 35 35 36 38 38 40 38 42 43 42 41 42 44 43 41 42 43 47 50 52 55 56 56
38 38 37 35 34 35 35 37 35 34 35 35 36 34 33 31 33 34 35 37 38 36 35 37 35 35 34 36 40 43 43 43 44 46 48 50 50 52
38 37 36 33 32 33 34 34 34 34 35 35 33 29 29 28 30 31 33 34 35 33 32 37 33 35 33 34 35 37 38 40 41 43 45 45 47 49
34 32 31 30 29 28 30 29 29 29 28 28 28 26 26 28 31 33 36 37 38 34 30 28 27 29 28 31 32 35 37 36 36 39 41 42 43 45
32 31 28 24 24 22 23 23 24 24 25 24 24 24 24 21 20 23 23 26 25 26 22 28 26 25 26 23 23 24 27 29 32 35 36 37 39 42
32 27 23 20 20 23 22 23 24 24 21 21 19 15 12 11 9 9 10 13 15 19 13 18 21 21 24 22 18 17 19 18 21 26 30 32 34 37
27 25 22 20 18 18 19 19 20 19 16 12 11 11 11 10 8 10 11 13 16 18 16 18 24 26 23 22 20 15 16 16 20 21 23 24 27 32
23 21 18 17 15 13 14 15 12 9 8 9 9 9 9 9 9 9 10 12 14 15 16 17 21 22 23 23 19 20 22 18 18 19 20 22 23 25
19 17 16 14 12 12 12 8 4 5 6 7 8 8 8 7 6 6 7 7 11 9 8 8 9 11 14 19 23 24 22 19 17 17 17 19 20 20
18 16 13 11 11 10 10 10 7 5 6 6 7 7 7 5 4 3 2 6 10 6 4 6 8 11 13 11 14 18 20 22 18 15 15 15 15 14
16 15 13 12 11 10 9 8 7 6 5 4 5 7 8 7 5 5 6 4 4 4 6 9 9 10 11 7 6 4 5 11 15 15 14 16 16 15
15 14 13 12 11 9 7 7 8 7 6 6 6 5 9 10 9 6 4 3 5 5 4 5 8 7 11 10 11 10 9 8 8 11 17 16 14 19
15 14 13 12 10 7 8 9 9 8 7 6 9 8 3 10 10 9 7 6 6 6 6 6 7 7 6 6 8 9 10 11 11 11 14 14 16 16
14 14 13 11 7 6 7 9 9 9 9 9 9 10 6 2 6 9 10 11 11 11 11 12 13 12 11 10 11 8 7 10 10 8 8 10 14 15
15 13 12 10 5 4 8 9 9 9 9 9 9 9 8 8 5 5 8 11 12 13 13 13 12 12 12 12 13 11 10 11 10 8 9 9 10 14
15 13 12 10 6 5 5 9 9 9 9 8 8 8 8 7 7 7 7 7 7 8 10 12 12 11 11 11 11 10 10 11 11 9 9 9 10 9

GFSNE_700_spd_030.txt.gz
Wind_Speed
39 37 35 33 34 34 34 22 31 32 33 28 29 23 20 21 24 27 29 32 41 56 51 42 47 51 43 53 51 54 52 47 48 47 45 45 41 42
37 32 34 33 29 27 27 31 34 35 36 38 34 33 29 25 23 27 30 27 30 36 39 53 47 47 47 47 55 56 55 54 54 51 49 48 46 45
35 34 32 31 30 29 28 29 32 36 40 42 39 36 38 38 33 29 31 32 29 28 32 33 43 49 50 52 56 57 57 53 52 51 51 54 52 51
33 32 33 35 36 36 37 37 38 38 40 42 41 38 38 39 39 36 33 35 36 34 32 37 35 40 44 52 58 58 58 55 56 60 58 61 61 57
33 35 37 39 39 39 38 37 37 38 38 40 40 39 38 37 38 36 34 35 35 37 37 36 38 40 40 40 43 43 50 56 55 52 52 58 65 64
34 37 39 40 40 40 40 39 38 36 36 37 38 37 35 32 34 35 33 33 35 36 36 36 38 39 40 42 42 44 46 52 53 51 51 54 60 64
38 41 42 41 41 41 41 41 40 39 37 37 37 38 35 32 32 32 34 32 32 33 34 35 36 39 40 39 42 45 48 53 52 53 51 51 53 58
43 41 40 40 39 38 37 37 38 39 38 38 39 39 37 34 32 33 34 33 33 29 33 34 37 37 37 39 41 43 47 51 49 51 49 49 52 54
41 41 40 39 38 36 34 34 33 33 35 36 38 37 37 33 32 32 31 34 34 30 33 37 38 40 37 38 39 41 43 47 48 47 48 50 52 51
39 38 37 37 34 32 30 29 28 29 29 31 33 33 32 31 31 31 30 31 31 29 28 35 32 37 38 41 41 42 43 43 45 46 47 48 50 51
39 34 32 30 27 26 25 24 24 20 22 25 26 27 28 27 26 26 24 25 24 24 25 33 30 32 34 36 37 39 40 40 41 43 45 46 47 49
31 25 24 25 23 21 21 21 21 18 20 20 22 23 23 22 21 20 19 19 17 16 17 25 26 31 34 33 32 32 34 37 39 40 41 42 42 44
27 25 24 22 19 17 17 18 17 15 14 14 14 15 16 16 14 13 12 11 9 6 8 11 12 16 19 20 26 30 33 33 34 35 38 39 39 41
25 24 23 21 19 17 16 16 17 17 13 10 8 8 9 10 11 12 13 13 13 11 11 13 14 16 18 18 18 18 22 25 28 28 29 29 31 35
23 23 22 21 19 17 15 16 15 12 9 7 6 7 8 9 10 11 12 11 10 10 10 11 11 10 12 15 18 18 20 24 26 25 26 26 27 29
21 21 20 19 19 18 16 14 12 10 7 5 4 5 5 6 6 6 6 4 3 4 3 3 1 2 5 8 10 12 18 23 25 27 26 25 24 25
21 20 19 18 17 16 13 11 12 12 11 8 4 4 5 7 7 7 7 5 2 2 1 3 3 3 2 2 3 8 11 19 22 27 29 27 24 23
21 20 19 19 17 14 11 11 12 12 10 9 8 4 7 10 10 9 8 7 6 5 4 3 3 4 4 3 4 5 5 4 12 18 22 24 21 22
23 20 19 18 16 12 10 10 10 10 10 9 8 8 5 9 12 11 9 10 9 6 5 7 5 3 3 6 8 7 6 6 5 5 10 13 16 20
24 20 18 16 15 12 10 10 11 11 10 10 9 8 7 3 9 13 13 12 11 9 8 9 9 9 10 10 7 6 6 8 9 10 10 10 12 15
22 22 18 16 14 12 11 11 11 10 10 10 9 8 8 7 1 8 12 13 14 13 13 13 14 14 14 14 14 11 10 11 11 11 12 13 12 11
21 21 20 18 15 12 11 12 11 11 11 10 9 8 7 6 4 2 4 7 11 12 13 13 14 14 13 11 10 10 12 14 13 14 14 14 15 14
20 19 19 18 17 15 13 12 12 10 9 9 9 8 7 6 5 4 4 3 4 4 4 5 7 9 11 10 11 10 10 11 12 14 15 15 15 15

GFSNE_700_spd_033.txt.gz
Wind_Speed
40 41 38 35 33 34 34 35 35 38 38 32 33 27 25 27 28 26 23 22 25 32 35 44 55 54 49 51 55 50 52 49 51 50 46 43 41 36
42 41 36 34 32 31 31 32 33 34 38 39 37 36 34 28 30 30 29 27 25 25 30 43 45 48 45 52 58 57 58 52 53 55 50 47 45 40
38 36 35 34 35 35 36 36 36 38 41 40 39 37 38 38 38 35 33 32 33 31 29 31 39 41 47 49 45 54 50 49 48 57 55 53 49 45
32 33 34 35 36 37 39 40 39 38 40 42 40 41 43 39 38 37 37 37 38 37 37 34 34 37 38 40 45 48 47 53 50 58 58 57 54 50
32 34 35 37 39 42 43 43 42 41 40 40 38 38 39 38 38 37 36 36 38 39 40 39 37 36 40 41 41 43 48 52 52 53 54 56 58 56
33 36 39 42 45 44 42 42 41 41 41 40 39 38 38 34 36 36 35 34 34 36 38 38 39 39 39 42 44 43 46 49 51 56 58 61 61 57
35 39 43 45 44 43 43 40 39 39 39 38 38 39 38 36 34 34 34 33 31 32 34 34 37 38 39 40 41 42 42 44 48 52 54 59 61 58
40 42 44 44 44 43 40 38 37 37 37 35 34 35 36 36 35 35 35 34 35 31 31 33 36 38 38 39 40 41 43 45 46 48 49 50 52 53
41 43 44 44 40 37 34 33 31 31 33 34 32 31 32 31 32 34 33 34 33 29 33 32 34 37 38 39 40 42 44 44 46 47 48 51 53 52
41 42 41 36 32 31 31 29 25 24 23 26 29 30 28 27 28 29 30 31 30 26 31 34 32 36 38 40 40 40 43 44 46 46 48 50 50 51
39 37 31 29 29 28 26 25 23 20 21 23 24 24 24 23 22 23 24 25 24 22 26 32 28 32 36 40 40 41 41 41 41 42 44 46 47 48
37 29 26 26 25 24 23 23 22 18 16 16 19 21 20 19 18 19 19 19 19 18 19 24 24 28 29 31 33 36 37 38 41 43 45 45 45 46
36 26 24 24 23 22 21 20 20 17 17 16 13 12 13 13 13 14 14 14 14 10 10 13 14 17 20 23 28 33 35 35 36 37 38 38 40 43
32 25 23 23 22 21 21 20 18 16 14 10 8 8 8 8 8 9 9 10 9 9 12 13 12 14 14 13 12 19 24 29 33 33 32 32 33 36
29 25 23 23 22 22 20 18 16 14 12 9 6 5 6 6 7 8 9 10 12 12 13 13 11 12 12 12 13 17 20 22 25 27 28 28 29 30
27 23 22 21 22 21 19 15 12 13 12 9 5 4 4 5 5 5 6 6 5 5 7 7 6 5 5 7 7 8 15 21 24 26 28 29 28 27
27 24 21 19 19 18 16 14 14 14 11 9 7 3 4 4 4 5 4 4 3 0 3 6 6 4 2 2 2 4 6 10 16 21 25 26 27 26
27 25 22 19 17 16 13 14 14 15 15 13 10 8 4 5 6 6 6 8 7 4 3 5 3 3 4 5 5 6 7 6 8 12 17 20 22 24
26 25 22 19 17 15 14 13 14 14 14 12 12 10 7 5 8 9 9 10 10 7 7 8 7 5 4 5 8 9 11 9 7 5 5 10 16 22
24 23 22 20 18 15 13 13 14 14 13 12 11 11 10 6 7 12 12 12 11 9 9 9 10 10 10 9 10 10 10 8 8 8 7 6 7 11
23 23 22 21 19 17 15 13 12 12 12 12 11 10 10 8 5 4 9 12 13 13 13 14 15 15 15 14 13 14 14 13 12 11 10 10 10 9
22 21 22 21 20 19 17 15 14 13 13 12 11 11 9 8 6 5 3 5 9 11 12 13 14 15 15 13 12 10 11 13 14 14 14 14 13 12
23 21 20 21 21 20 19 17 16 13 12 12 11 10 10 9 7 6 6 5 5 5 5 6 7 8 9 10 12 12 12 11 11 12 14 14 15 15